Location: Darmstadt
(49.8706°N, 8.6494°E)
Time: 07:30:49
(UTC+01:00)

NOSS 3-4 (C) - Pass Details

Date: 31 October 2020
Orbit: 884 x 1328 km, 63.4° (Epoch: 28 November)

Event Time Altitude Azimuth Distance (km) Brightness Sun altitude
Rises 17:22:40 0° 311° (NW) 3,698 7.0 -3.7°
Reaches altitude 10° 17:25:22 10° 320° (NW) 2,807 6.2 -4.1°
Maximum altitude 17:31:31 38° 28° (NNE) 1,618 4.4 -5.1°
Drops below altitude 10° 17:38:18 10° 94° (E) 3,101 5.5 -6.1°
Enters shadow 17:40:11 - 100° (E) 3,717 6.0 -6.4°
